Rochelle, IL

6:01 PM CST on November 21, 2019 (GMT -0600)
Rochelle

Weather History for KRPJ - August, 2019

Change the Weather History Date:

Sunday, August 25, 2019

  Actual Average (WUND) Record (WUND)
Temperature  
Mean Temperature 64 °F -  
Max Temperature 75 °F - - (-1)
Min Temperature 54 °F - - (-1)
Degree Days  
Heating Degree Days 1    
Growing Degree Days 14 (Base 50)    
Moisture  
Dew Point 57 °F    
Average Humidity 78    
Maximum Humidity 96    
Minimum Humidity 55    
Precipitation  
Precipitation 0.00 in - - ()
Sea Level Pressure  
Sea Level Pressure 30.08 in    
Wind  
Wind Speed 5 mph ()    
Max Wind Speed 13 mph    
Max Gust Speed 18 mph    
Visibility 10.0 miles    
Events Rain    
Averages and records for this station are not official NWS values.
T = Trace of Precipitation, MM = Missing Value Source: Averaged Metar Reports

Daily Weather History Graph

Daily Weather History Graph

Search for Another Location

Airport or City:

Astronomy

Aug. 25, 2019 Rise Set
Actual Time 6:14 AM CDT 7:41 PM CDT
Civil Twilight 5:45 AM CDT 8:10 PM CDT
Nautical Twilight 5:10 AM CDT 8:45 PM CDT
Astronomical Twilight 4:32 AM CDT 9:22 PM CDT
Moon 12:46 AM CDT (8/25) 4:05 PM CDT (8/25)
Length of Visible Light 14h 25m
Length of Day
13h 26m
Waning Crescent, 29% of the Moon is Illuminated
Aug 25
Waning Crescent
Aug 30
New
Sep 5
First Quarter
Sep 13
Full
Sep 21
Last Quarter

Hourly Weather History & Observations

Time (CDT) Temp. Dew Point Humidity Pressure Visibility Wind Dir Wind Speed Gust Speed Precip Events Conditions
12:15 AM 58.3 °F 54.5 °F 87% 30.18 in 10.0 mi East 5.8 mph - N/A   Clear
12:35 AM 57.7 °F 54.3 °F 88% 30.19 in 10.0 mi East 4.6 mph - N/A   Clear
12:55 AM 56.5 °F 54.1 °F 92% 30.18 in 10.0 mi ENE 4.6 mph - N/A   Clear
1:15 AM 56.7 °F 54.1 °F 91% 30.17 in 10.0 mi East 3.5 mph - N/A   Clear
1:35 AM 56.3 °F 54.3 °F 93% 30.17 in 10.0 mi East 3.5 mph - N/A   Clear
1:55 AM 55.6 °F 54.1 °F 95% 30.17 in 10.0 mi Calm Calm - N/A   Clear
2:15 AM 55.8 °F 54.0 °F 94% 30.17 in 10.0 mi East 3.5 mph - N/A   Clear
2:35 AM 56.3 °F 53.8 °F 91% 30.16 in 10.0 mi East 4.6 mph - N/A   Clear
2:55 AM 55.4 °F 53.6 °F 94% 30.16 in 10.0 mi East 4.6 mph - N/A   Scattered Clouds
3:15 AM 55.2 °F 53.6 °F 94% 30.15 in 10.0 mi ESE 4.6 mph - N/A   Mostly Cloudy
3:35 AM 56.3 °F 54.0 °F 92% 30.15 in 10.0 mi ESE 4.6 mph - N/A   Overcast
3:55 AM 56.3 °F 53.8 °F 91% 30.15 in 10.0 mi ESE 4.6 mph - N/A   Mostly Cloudy
4:15 AM 55.6 °F 53.6 °F 93% 30.14 in 10.0 mi ESE 4.6 mph - N/A   Overcast
4:35 AM 54.9 °F 53.6 °F 96% 30.14 in 10.0 mi ESE 4.6 mph - N/A   Overcast
4:55 AM 56.1 °F 54.3 °F 94% 30.14 in 10.0 mi ESE 4.6 mph - N/A   Overcast
5:15 AM 55.8 °F 54.1 °F 94% 30.14 in 10.0 mi ESE 5.8 mph - N/A   Overcast
5:35 AM 55.8 °F 54.1 °F 94% 30.14 in 10.0 mi ESE 4.6 mph - N/A   Overcast
5:55 AM 55.4 °F 54.0 °F 95% 30.15 in 10.0 mi Calm Calm - N/A   Overcast
6:15 AM 55.8 °F 54.3 °F 95% 30.15 in 10.0 mi East 4.6 mph - N/A   Overcast
6:35 AM 56.3 °F 54.5 °F 94% 30.15 in 10.0 mi East 4.6 mph - N/A   Overcast
6:55 AM 56.1 °F 54.5 °F 94% 30.14 in 10.0 mi East 5.8 mph - N/A   Mostly Cloudy
7:15 AM 56.3 °F 54.5 °F 94% 30.14 in 10.0 mi East 6.9 mph - N/A   Scattered Clouds
7:35 AM 58.6 °F 55.8 °F 90% 30.14 in 10.0 mi East 6.9 mph - N/A   Mostly Cloudy
7:55 AM 60.4 °F 56.1 °F 86% 30.14 in 10.0 mi ESE 6.9 mph - N/A   Mostly Cloudy
8:15 AM 61.0 °F 56.3 °F 85% 30.14 in 10.0 mi ESE 9.2 mph - N/A   Overcast
8:35 AM 61.2 °F 56.3 °F 84% 30.14 in 10.0 mi ESE 6.9 mph - N/A   Mostly Cloudy
8:55 AM 62.1 °F 56.7 °F 82% 30.13 in 10.0 mi ESE 8.1 mph - N/A   Scattered Clouds
9:15 AM 63.9 °F 56.7 °F 77% 30.12 in 10.0 mi ESE 6.9 mph - N/A   Clear
9:35 AM 65.5 °F 57.4 °F 75% 30.12 in 10.0 mi ESE 8.1 mph 16.1 mph N/A   Clear
9:55 AM 67.3 °F 57.7 °F 71% 30.13 in 10.0 mi SE 10.4 mph - N/A   Clear
10:15 AM 67.6 °F 57.9 °F 71% 30.12 in 10.0 mi ESE 11.5 mph 16.1 mph N/A   Clear
10:35 AM 68.4 °F 57.9 °F 69% 30.13 in 10.0 mi ESE 8.1 mph - N/A   Clear
10:55 AM 69.8 °F 58.8 °F 68% 30.12 in 10.0 mi ESE 9.2 mph - N/A   Clear
11:15 AM 71.2 °F 57.9 °F 63% 30.12 in 10.0 mi SE 11.5 mph 16.1 mph N/A   Clear
11:35 AM 70.7 °F 57.0 °F 62% 30.11 in 10.0 mi SE 11.5 mph - N/A   Clear
11:55 AM 70.2 °F 57.6 °F 64% 30.10 in 10.0 mi ESE 9.2 mph - N/A   Clear
12:15 PM 72.7 °F 58.3 °F 60% 30.10 in 10.0 mi ESE 9.2 mph - N/A   Clear
12:35 PM 72.5 °F 57.6 °F 59% 30.09 in 10.0 mi SE 12.7 mph 16.1 mph N/A   Clear
12:55 PM 73.0 °F 57.6 °F 58% 30.08 in 10.0 mi ESE 8.1 mph 17.3 mph N/A   Clear
1:15 PM 72.7 °F 57.4 °F 59% 30.07 in 10.0 mi ESE 11.5 mph 17.3 mph N/A   Scattered Clouds
1:35 PM 73.2 °F 57.4 °F 57% 30.06 in 10.0 mi ESE 9.2 mph 16.1 mph N/A   Scattered Clouds
1:55 PM 74.7 °F 57.4 °F 55% 30.06 in 10.0 mi ESE 12.7 mph 18.4 mph N/A   Clear
2:15 PM 74.7 °F 58.3 °F 57% 30.05 in 10.0 mi SE 9.2 mph - N/A   Clear
2:35 PM 72.7 °F 56.7 °F 57% 30.05 in 10.0 mi SE 10.4 mph - N/A   Clear
2:55 PM 73.9 °F 57.7 °F 57% 30.04 in 10.0 mi SE 9.2 mph - N/A   Clear
3:15 PM 73.0 °F 57.2 °F 57% 30.04 in 10.0 mi ESE 9.2 mph - N/A   Clear
3:35 PM 72.5 °F 56.1 °F 56% 30.04 in 10.0 mi ESE 11.5 mph - N/A   Scattered Clouds
3:55 PM 72.0 °F 56.3 °F 58% 30.03 in 10.0 mi SE 11.5 mph - N/A   Mostly Cloudy
4:15 PM 71.2 °F 56.7 °F 60% 30.02 in 10.0 mi ESE 6.9 mph - N/A   Overcast
4:35 PM 70.9 °F 58.3 °F 64% 30.02 in 10.0 mi ESE 5.8 mph - N/A Rain Rain
4:55 PM 70.7 °F 58.8 °F 66% 30.01 in 10.0 mi SE 5.8 mph - N/A Rain Light Rain
5:15 PM 70.0 °F 59.2 °F 68% 30.01 in 10.0 mi East 3.5 mph - N/A   Overcast
5:35 PM 70.2 °F 60.4 °F 71% 30.00 in 10.0 mi East 3.5 mph - N/A Rain Light Rain
5:55 PM 69.4 °F 61.3 °F 75% 30.00 in 10.0 mi East 3.5 mph - N/A   Overcast
6:15 PM 68.9 °F 61.7 °F 78% 30.00 in 10.0 mi Calm Calm - N/A   Overcast
6:35 PM 69.4 °F 60.3 °F 73% 29.99 in 10.0 mi East 3.5 mph - N/A   Overcast
6:55 PM 68.2 °F 60.6 °F 77% 29.99 in 10.0 mi East 3.5 mph - N/A   Overcast
7:15 PM 68.0 °F 61.2 °F 79% 29.99 in 10.0 mi North 3.5 mph - N/A   Overcast
7:35 PM 65.8 °F 62.4 °F 89% 29.99 in 10.0 mi NNW 3.5 mph - N/A   Overcast
7:55 PM 65.8 °F 62.4 °F 89% 29.99 in 10.0 mi North 3.5 mph - N/A   Overcast
8:15 PM 65.5 °F 63.0 °F 92% 29.99 in 10.0 mi Calm Calm - N/A   Overcast
8:35 PM 65.3 °F 62.6 °F 91% 29.99 in 10.0 mi Calm Calm - N/A   Overcast
8:55 PM 67.6 °F 59.2 °F 74% 29.99 in 10.0 mi ENE 8.1 mph - N/A   Overcast
9:15 PM 67.3 °F 59.0 °F 75% 29.99 in 10.0 mi East 6.9 mph - N/A   Overcast
9:35 PM 67.1 °F 59.2 °F 76% 29.99 in 10.0 mi ENE 5.8 mph - N/A   Overcast
9:55 PM 66.6 °F 59.4 °F 78% 29.98 in 10.0 mi ENE 6.9 mph - N/A   Overcast
10:15 PM 66.4 °F 59.5 °F 79% 29.98 in 10.0 mi ENE 5.8 mph - N/A   Overcast
10:35 PM 66.4 °F 59.9 °F 80% 29.97 in 10.0 mi East 5.8 mph - N/A   Overcast
10:55 PM 66.7 °F 59.0 °F 76% 29.96 in 10.0 mi East 4.6 mph - N/A   Overcast
11:15 PM 66.4 °F 59.0 °F 77% 29.95 in 10.0 mi East 5.8 mph - N/A   Overcast
11:35 PM 66.6 °F 58.6 °F 76% 29.95 in 10.0 mi East 5.8 mph - N/A   Overcast
11:55 PM 66.6 °F 59.0 °F 77% 29.94 in 10.0 mi East 5.8 mph - N/A   Overcast